Time,TemperatureF,DewpointF,PressureIn,WindDirection,WindDirectionDegrees,WindSpeedMPH,WindSpeedGustMPH,Humidity,HourlyPrecipIn,Conditions,Clouds,dailyrainin,SoftwareType,DateUTC
2013-04-15 00:04:00,35.3,28.8,30.25,NW,315,0.0,4.5,77,0.00,,CLR,0.00,VWS V14.01,2013-04-15 04:04:00,
2013-04-15 00:09:00,35.2,29.0,30.25,NW,315,0.0,3.0,78,0.00,,CLR,0.00,VWS V14.01,2013-04-15 04:09:00,
2013-04-15 00:14:00,35.0,29.2,30.24,NW,315,0.0,3.0,79,0.00,,CLR,0.00,VWS V14.01,2013-04-15 04:14:00,
2013-04-15 00:19:00,34.9,29.4,30.24,NW,316,0.0,1.5,80,0.00,,CLR,0.00,VWS V14.01,2013-04-15 04:19:00,
2013-04-15 00:24:00,34.6,29.1,30.24,NW,310,0.0,3.0,80,0.00,,CLR,0.00,VWS V14.01,2013-04-15 04:24:00,
2013-04-15 00:29:00,34.5,29.0,30.25,NW,311,0.0,3.0,80,0.00,,CLR,0.00,VWS V14.01,2013-04-15 04:29:00,
2013-04-15 00:34:00,34.5,29.0,30.25,NW,311,0.0,3.0,80,0.00,,CLR,0.00,VWS V14.01,2013-04-15 04:34:00,
2013-04-15 00:39:00,34.3,28.8,30.25,NW,311,0.0,3.0,80,0.00,,CLR,0.00,VWS V14.01,2013-04-15 04:39:00,
2013-04-15 00:44:00,34.3,29.1,30.25,NW,311,0.0,3.0,81,0.00,,CLR,0.00,VWS V14.01,2013-04-15 04:44:00,
2013-04-15 00:49:00,34.2,29.0,30.25,NW,310,0.0,0.0,81,0.00,,CLR,0.00,VWS V14.01,2013-04-15 04:49:00,
2013-04-15 00:54:00,33.9,28.7,30.25,NW,310,0.0,0.0,81,0.00,,CLR,0.00,VWS V14.01,2013-04-15 04:54:00,
2013-04-15 01:00:00,33.7,28.5,30.26,NW,311,0.0,1.5,81,0.00,,CLR,0.00,VWS V14.01,2013-04-15 05:00:00,
2013-04-15 01:05:00,33.7,28.5,30.26,NW,311,0.0,1.5,81,0.00,,CLR,0.00,VWS V14.01,2013-04-15 05:05:00,
2013-04-15 01:10:00,33.7,28.2,30.26,NW,311,0.0,1.5,80,0.00,,CLR,0.00,VWS V14.01,2013-04-15 05:10:00,
2013-04-15 01:15:00,33.7,28.2,30.26,NW,311,0.0,1.5,80,0.00,,CLR,0.00,VWS V14.01,2013-04-15 05:15:00,
2013-04-15 01:20:00,33.7,28.2,30.26,NW,310,0.0,1.5,80,0.00,,CLR,0.00,VWS V14.01,2013-04-15 05:20:00,
2013-04-15 01:25:00,33.7,28.2,30.26,NW,311,0.0,1.5,80,0.00,,CLR,0.00,VWS V14.01,2013-04-15 05:25:00,
2013-04-15 01:30:00,33.7,28.5,30.26,NW,310,0.0,3.0,81,0.00,,CLR,0.00,VWS V14.01,2013-04-15 05:30:00,
2013-04-15 01:35:00,33.9,28.7,30.26,NW,310,0.0,3.0,81,0.00,,CLR,0.00,VWS V14.01,2013-04-15 05:35:00,
2013-04-15 01:40:00,34.0,28.8,30.26,NW,311,0.0,3.0,81,0.00,,CLR,0.00,VWS V14.01,2013-04-15 05:40:00,
2013-04-15 01:45:00,33.9,28.7,30.26,NW,312,1.5,3.0,81,0.00,,CLR,0.00,VWS V14.01,2013-04-15 05:45:00,
2013-04-15 01:50:00,33.9,29.0,30.26,NW,312,0.0,3.0,82,0.00,,CLR,0.00,VWS V14.01,2013-04-15 05:50:00,
2013-04-15 01:55:00,33.7,28.8,30.26,NW,311,0.0,3.0,82,0.00,,CLR,0.00,VWS V14.01,2013-04-15 05:55:00,
2013-04-15 02:00:00,33.7,28.8,30.26,NW,312,0.0,1.5,82,0.00,,CLR,0.00,VWS V14.01,2013-04-15 06:00:00,
2013-04-15 02:05:00,33.4,28.5,30.26,NW,312,0.0,1.5,82,0.00,,CLR,0.00,VWS V14.01,2013-04-15 06:05:00,
2013-04-15 02:10:00,33.3,28.7,30.26,NW,312,0.0,1.5,83,0.00,,CLR,0.00,VWS V14.01,2013-04-15 06:10:00,
2013-04-15 02:15:00,33.3,28.7,30.26,NW,312,0.0,1.5,83,0.00,,CLR,0.00,VWS V14.01,2013-04-15 06:15:00,
2013-04-15 02:20:00,33.1,28.5,30.26,NW,312,0.0,1.5,83,0.00,,CLR,0.00,VWS V14.01,2013-04-15 06:20:00,
2013-04-15 02:25:00,32.8,28.2,30.26,NW,311,0.0,1.5,83,0.00,,CLR,0.00,VWS V14.01,2013-04-15 06:25:00,
2013-04-15 02:30:00,32.7,28.4,30.26,NW,312,0.0,1.5,84,0.00,,CLR,0.00,VWS V14.01,2013-04-15 06:30:00,
2013-04-15 02:35:00,32.5,28.2,30.26,NW,312,0.0,1.5,84,0.00,,CLR,0.00,VWS V14.01,2013-04-15 06:35:00,
2013-04-15 02:40:00,32.4,28.1,30.26,NW,312,0.0,1.5,84,0.00,,CLR,0.00,VWS V14.01,2013-04-15 06:40:00,
2013-04-15 02:41:00,31.7,28.6,30.28,NW,326,0.0,3.0,88,0.00,,CLR,0.00,VWS V14.01,2013-04-15 06:41:00,
2013-04-15 02:42:00,31.7,28.6,30.28,NW,326,0.0,3.0,88,0.00,,CLR,0.00,VWS V14.01,2013-04-15 06:42:00,
2013-04-15 02:43:00,31.5,28.4,30.28,NW,326,0.0,3.0,88,0.00,,CLR,0.00,VWS V14.01,2013-04-15 06:43:00,
2013-04-15 02:44:00,31.5,28.4,30.28,NW,326,0.0,3.0,88,0.00,,CLR,0.00,VWS V14.01,2013-04-15 06:44:00,
2013-04-15 02:45:00,32.4,28.7,30.26,NW,312,0.0,1.5,86,0.00,,CLR,0.00,VWS V14.01,2013-04-15 06:45:00,
2013-04-15 02:46:00,31.5,28.4,30.28,NW,326,0.0,3.0,88,0.00,,CLR,0.00,VWS V14.01,2013-04-15 06:46:00,
2013-04-15 02:47:00,31.5,28.4,30.28,NW,325,0.0,3.0,88,0.00,,CLR,0.00,VWS V14.01,2013-04-15 06:47:00,
2013-04-15 02:48:00,31.5,28.4,30.28,NW,326,0.0,3.0,88,0.00,,CLR,0.00,VWS V14.01,2013-04-15 06:48:00,
2013-04-15 02:49:00,31.4,28.3,30.28,NW,326,0.0,3.0,88,0.00,,CLR,0.00,VWS V14.01,2013-04-15 06:49:00,
2013-04-15 02:50:00,32.5,28.8,30.26,NW,311,0.0,1.5,86,0.00,,CLR,0.00,VWS V14.01,2013-04-15 06:50:00,
2013-04-15 02:51:00,31.4,28.3,30.28,NW,326,0.0,3.0,88,0.00,,CLR,0.00,VWS V14.01,2013-04-15 06:51:00,
2013-04-15 02:52:00,31.4,28.3,30.28,NW,326,0.0,3.0,88,0.00,,CLR,0.00,VWS V14.01,2013-04-15 06:52:00,
2013-04-15 02:53:00,31.2,28.1,30.28,NW,326,0.0,3.0,88,0.00,,CLR,0.00,VWS V14.01,2013-04-15 06:53:00,
2013-04-15 02:54:00,31.2,28.1,30.28,NW,326,0.0,3.0,88,0.00,,CLR,0.00,VWS V14.01,2013-04-15 06:54:00,
2013-04-15 02:55:00,32.4,28.7,30.26,NW,311,0.0,1.5,86,0.00,,CLR,0.00,VWS V14.01,2013-04-15 06:55:00,
2013-04-15 02:56:00,31.2,28.3,30.28,NW,326,0.0,3.0,89,0.00,,CLR,0.00,VWS V14.01,2013-04-15 06:56:00,
2013-04-15 02:57:00,31.2,28.3,30.28,NW,326,0.0,3.0,89,0.00,,CLR,0.00,VWS V14.01,2013-04-15 06:57:00,
2013-04-15 02:58:00,31.1,28.0,30.28,NW,325,0.0,3.0,88,0.00,,CLR,0.00,VWS V14.01,2013-04-15 06:58:00,
2013-04-15 02:59:00,31.1,28.2,30.28,NW,326,0.0,3.0,89,0.00,,CLR,0.00,VWS V14.01,2013-04-15 06:59:00,
2013-04-15 03:00:00,32.2,28.5,30.26,NW,311,0.0,1.5,86,0.00,,CLR,0.00,VWS V14.01,2013-04-15 07:00:00,
2013-04-15 03:01:00,31.1,28.2,30.28,NW,326,0.0,3.0,89,0.00,,CLR,0.00,VWS V14.01,2013-04-15 07:01:00,
2013-04-15 03:05:00,32.2,28.8,30.26,NW,312,0.0,1.5,87,0.00,,CLR,0.00,VWS V14.01,2013-04-15 07:05:00,
2013-04-15 03:35:00,30.6,28.0,30.29,NW,326,0.0,1.5,90,0.00,,CLR,0.00,VWS V14.01,2013-04-15 07:35:00,
2013-04-15 03:36:00,30.6,28.0,30.29,NW,326,0.0,1.5,90,0.00,,CLR,0.00,VWS V14.01,2013-04-15 07:36:00,
2013-04-15 03:37:00,30.6,28.0,30.29,NW,326,0.0,1.5,90,0.00,,CLR,0.00,VWS V14.01,2013-04-15 07:37:00,
2013-04-15 03:38:00,30.5,27.9,30.29,NW,326,0.0,1.5,90,0.00,,CLR,0.00,VWS V14.01,2013-04-15 07:38:00,
2013-04-15 03:39:00,30.5,27.9,30.29,NW,326,0.0,1.5,90,0.00,,CLR,0.00,VWS V14.01,2013-04-15 07:39:00,
2013-04-15 03:40:00,30.5,27.9,30.29,NW,326,0.0,1.5,90,0.00,,CLR,0.00,VWS V14.01,2013-04-15 07:40:00,
2013-04-15 03:41:00,30.5,27.9,30.29,NW,325,0.0,1.5,90,0.00,,CLR,0.00,VWS V14.01,2013-04-15 07:41:00,
2013-04-15 03:42:00,30.5,27.9,30.29,NW,326,1.5,1.5,90,0.00,,CLR,0.00,VWS V14.01,2013-04-15 07:42:00,
2013-04-15 03:43:00,30.5,27.9,30.29,NW,326,0.0,1.5,90,0.00,,CLR,0.00,VWS V14.01,2013-04-15 07:43:00,
2013-04-15 03:44:00,30.5,27.9,30.29,NW,325,0.0,1.5,90,0.00,,CLR,0.00,VWS V14.01,2013-04-15 07:44:00,
2013-04-15 03:45:00,30.5,27.9,30.30,NW,326,0.0,1.5,90,0.00,,CLR,0.00,VWS V14.01,2013-04-15 07:45:00,
2013-04-15 03:46:00,31.5,28.4,30.28,NW,325,0.0,3.0,88,0.00,,CLR,0.00,VWS V14.01,2013-04-15 07:46:00,
2013-04-15 03:47:00,30.5,27.9,30.30,NW,326,0.0,1.5,90,0.00,,CLR,0.00,VWS V14.01,2013-04-15 07:47:00,
2013-04-15 03:48:00,30.5,27.9,30.30,NW,326,0.0,1.5,90,0.00,,CLR,0.00,VWS V14.01,2013-04-15 07:48:00,
2013-04-15 03:49:00,30.5,27.9,30.30,NW,326,0.0,1.5,90,0.00,,CLR,0.00,VWS V14.01,2013-04-15 07:49:00,
2013-04-15 03:50:00,30.3,27.7,30.30,NW,326,0.0,1.5,90,0.00,,CLR,0.00,VWS V14.01,2013-04-15 07:50:00,
2013-04-15 03:53:00,31.2,28.1,30.28,NW,326,0.0,3.0,88,0.00,,CLR,0.00,VWS V14.01,2013-04-15 07:53:00,
2013-04-15 03:58:00,31.1,28.0,30.28,NW,325,0.0,3.0,88,0.00,,CLR,0.00,VWS V14.01,2013-04-15 07:58:00,
2013-04-15 04:03:00,31.1,28.2,30.28,NW,326,0.0,1.5,89,0.00,,CLR,0.00,VWS V14.01,2013-04-15 08:03:00,
2013-04-15 04:08:00,31.1,28.2,30.28,NW,325,0.0,1.5,89,0.00,,CLR,0.00,VWS V14.01,2013-04-15 08:08:00,
2013-04-15 04:13:00,30.9,28.0,30.28,NW,326,0.0,1.5,89,0.00,,CLR,0.00,VWS V14.01,2013-04-15 08:13:00,
2013-04-15 04:18:00,30.8,28.0,30.28,NW,326,0.0,1.5,89,0.00,,CLR,0.00,VWS V14.01,2013-04-15 08:18:00,
2013-04-15 04:24:00,30.8,28.2,30.28,NW,325,0.0,1.5,90,0.00,,CLR,0.00,VWS V14.01,2013-04-15 08:24:00,
2013-04-15 04:29:00,30.6,28.0,30.28,NW,326,0.0,0.0,90,0.00,,CLR,0.00,VWS V14.01,2013-04-15 08:29:00,
2013-04-15 04:34:00,30.6,28.0,30.29,NW,326,0.0,1.5,90,0.00,,CLR,0.00,VWS V14.01,2013-04-15 08:34:00,
2013-04-15 04:39:00,30.5,27.9,30.29,NW,326,0.0,1.5,90,0.00,,CLR,0.00,VWS V14.01,2013-04-15 08:39:00,
2013-04-15 04:47:00,30.5,27.9,30.30,NW,326,0.0,1.5,90,0.00,,CLR,0.00,VWS V14.01,2013-04-15 08:47:00,
2013-04-15 04:52:00,30.3,27.7,30.30,NW,325,0.0,1.5,90,0.00,,CLR,0.00,VWS V14.01,2013-04-15 08:52:00,
2013-04-15 04:57:00,30.3,27.7,30.30,NW,325,0.0,1.5,90,0.00,,CLR,0.00,VWS V14.01,2013-04-15 08:57:00,
2013-04-15 05:02:00,30.2,27.6,30.31,NW,326,0.0,1.5,90,0.00,,CLR,0.00,VWS V14.01,2013-04-15 09:02:00,
2013-04-15 05:07:00,30.0,27.4,30.31,NW,326,0.0,0.0,90,0.00,,CLR,0.00,VWS V14.01,2013-04-15 09:07:00,
2013-04-15 05:12:00,30.0,27.7,30.31,NW,326,0.0,0.0,91,0.00,,CLR,0.00,VWS V14.01,2013-04-15 09:12:00,
2013-04-15 05:17:00,29.9,27.6,30.31,NW,326,0.0,0.0,91,0.00,,CLR,0.00,VWS V14.01,2013-04-15 09:17:00,
2013-04-15 05:22:00,29.9,27.6,30.31,NW,326,0.0,0.0,91,0.00,,CLR,0.00,VWS V14.01,2013-04-15 09:22:00,
2013-04-15 05:27:00,29.7,27.4,30.31,NW,326,0.0,0.0,91,0.00,,CLR,0.00,VWS V14.01,2013-04-15 09:27:00,
2013-04-15 05:32:00,29.7,27.4,30.32,NW,325,0.0,0.0,91,0.00,,CLR,0.00,VWS V14.01,2013-04-15 09:32:00,
2013-04-15 05:37:00,29.6,27.3,30.32,NW,326,0.0,0.0,91,0.00,,CLR,0.00,VWS V14.01,2013-04-15 09:37:00,
2013-04-15 05:42:00,29.4,27.1,30.32,NW,326,0.0,0.0,91,0.00,,CLR,0.00,VWS V14.01,2013-04-15 09:42:00,
2013-04-15 05:47:00,29.3,27.0,30.33,NW,326,0.0,0.0,91,0.00,,CLR,0.00,VWS V14.01,2013-04-15 09:47:00,
2013-04-15 05:52:00,29.1,26.8,30.33,NW,326,0.0,0.0,91,0.00,,CLR,0.00,VWS V14.01,2013-04-15 09:52:00,
2013-04-15 05:57:00,29.1,26.8,30.33,NW,326,0.0,0.0,91,0.00,,CLR,0.00,VWS V14.01,2013-04-15 09:57:00,
2013-04-15 06:02:00,29.1,26.8,30.34,NW,326,0.0,0.0,91,0.00,,CLR,0.00,VWS V14.01,2013-04-15 10:02:00,
2013-04-15 06:07:00,29.1,26.8,30.34,NW,326,0.0,0.0,91,0.00,,CLR,0.00,VWS V14.01,2013-04-15 10:07:00,
2013-04-15 06:12:00,29.0,26.7,30.34,NW,326,0.0,0.0,91,0.00,,CLR,0.00,VWS V14.01,2013-04-15 10:12:00,
2013-04-15 06:17:00,29.0,26.7,30.34,NW,326,0.0,0.0,91,0.00,,CLR,0.00,VWS V14.01,2013-04-15 10:17:00,
2013-04-15 06:22:00,29.1,27.1,30.34,NW,326,0.0,0.0,92,0.00,,CLR,0.00,VWS V14.01,2013-04-15 10:22:00,
2013-04-15 06:27:00,29.1,27.1,30.34,NW,326,0.0,1.5,92,0.00,,CLR,0.00,VWS V14.01,2013-04-15 10:27:00,
2013-04-15 06:32:00,29.3,27.3,30.35,NW,326,0.0,1.5,92,0.00,,CLR,0.00,VWS V14.01,2013-04-15 10:32:00,
2013-04-15 06:37:00,29.6,27.6,30.35,NW,326,0.0,1.5,92,0.00,,CLR,0.00,VWS V14.01,2013-04-15 10:37:00,
2013-04-15 06:42:00,29.7,27.7,30.35,NW,326,0.0,1.5,92,0.00,,CLR,0.00,VWS V14.01,2013-04-15 10:42:00,
2013-04-15 06:47:00,30.0,28.0,30.36,NW,326,0.0,1.5,92,0.00,,CLR,0.00,VWS V14.01,2013-04-15 10:47:00,
2013-04-15 06:52:00,30.3,28.3,30.36,NW,326,0.0,1.5,92,0.00,,CLR,0.00,VWS V14.01,2013-04-15 10:52:00,
2013-04-15 06:57:00,30.8,28.8,30.36,NW,326,0.0,1.5,92,0.00,,CLR,0.00,VWS V14.01,2013-04-15 10:57:00,
2013-04-15 07:02:00,30.9,28.9,30.37,NW,325,0.0,1.5,92,0.00,,CLR,0.00,VWS V14.01,2013-04-15 11:02:00,
2013-04-15 07:07:00,31.2,29.1,30.37,NW,326,0.0,1.5,92,0.00,,CLR,0.00,VWS V14.01,2013-04-15 11:07:00,
2013-04-15 07:12:00,31.4,29.4,30.37,NW,326,0.0,0.0,92,0.00,,CLR,0.00,VWS V14.01,2013-04-15 11:12:00,
2013-04-15 07:17:00,31.5,29.5,30.38,NW,326,0.0,0.0,92,0.00,,CLR,0.00,VWS V14.01,2013-04-15 11:17:00,
2013-04-15 07:22:00,31.7,29.6,30.38,NW,326,0.0,0.0,92,0.00,,CLR,0.00,VWS V14.01,2013-04-15 11:22:00,
2013-04-15 07:27:00,31.9,29.8,30.38,NW,326,0.0,0.0,92,0.00,,CLR,0.00,VWS V14.01,2013-04-15 11:27:00,
2013-04-15 07:32:00,32.2,30.1,30.39,NW,325,0.0,0.0,92,0.00,,CLR,0.00,VWS V14.01,2013-04-15 11:32:00,
2013-04-15 07:37:00,32.7,30.6,30.39,NW,326,0.0,0.0,92,0.00,,CLR,0.00,VWS V14.01,2013-04-15 11:37:00,
2013-04-15 07:42:00,33.6,31.5,30.39,NW,326,0.0,0.0,92,0.00,,CLR,0.00,VWS V14.01,2013-04-15 11:42:00,
2013-04-15 07:48:00,34.2,31.3,30.40,NW,326,0.0,0.0,89,0.00,,CLR,0.00,VWS V14.01,2013-04-15 11:48:00,
2013-04-15 07:53:00,34.5,31.3,30.40,NW,326,0.0,1.5,88,0.00,,CLR,0.00,VWS V14.01,2013-04-15 11:53:00,
2013-04-15 07:58:00,35.0,31.2,30.40,NW,325,0.0,1.5,86,0.00,,CLR,0.00,VWS V14.01,2013-04-15 11:58:00,
2013-04-15 08:03:00,35.8,32.0,30.40,SW,220,0.0,1.5,86,0.00,,CLR,0.00,VWS V14.01,2013-04-15 12:03:00,
2013-04-15 08:08:00,36.3,32.2,30.40,SW,219,0.0,1.5,85,0.00,,CLR,0.00,VWS V14.01,2013-04-15 12:08:00,
2013-04-15 08:13:00,36.6,31.3,30.40,SSW,199,0.0,1.5,81,0.00,,CLR,0.00,VWS V14.01,2013-04-15 12:13:00,
2013-04-15 08:18:00,36.3,31.0,30.40,South,189,0.0,3.0,81,0.00,,CLR,0.00,VWS V14.01,2013-04-15 12:18:00,
2013-04-15 08:23:00,36.2,31.2,30.40,South,189,0.0,3.0,82,0.00,,CLR,0.00,VWS V14.01,2013-04-15 12:23:00,
2013-04-15 08:28:00,36.3,31.0,30.40,South,189,0.0,3.0,81,0.00,,CLR,0.00,VWS V14.01,2013-04-15 12:28:00,
2013-04-15 08:33:00,36.6,31.3,30.40,SE,135,1.5,3.0,81,0.00,,CLR,0.00,VWS V14.01,2013-04-15 12:33:00,
2013-04-15 08:38:00,36.9,31.3,30.40,SE,132,0.0,3.0,80,0.00,,CLR,0.00,VWS V14.01,2013-04-15 12:38:00,
2013-04-15 08:43:00,37.0,31.1,30.40,SE,131,3.0,3.0,79,0.00,,CLR,0.00,VWS V14.01,2013-04-15 12:43:00,
2013-04-15 08:48:00,37.3,31.4,30.40,SSW,212,4.5,4.5,79,0.00,,CLR,0.00,VWS V14.01,2013-04-15 12:48:00,
2013-04-15 08:53:00,37.8,31.6,30.40,SSW,212,0.0,4.5,78,0.00,,CLR,0.00,VWS V14.01,2013-04-15 12:53:00,
2013-04-15 08:58:00,38.3,32.0,30.40,SSW,211,0.0,4.5,78,0.00,,CLR,0.00,VWS V14.01,2013-04-15 12:58:00,
2013-04-15 09:03:00,38.5,31.9,30.40,SSW,211,0.0,4.5,77,0.00,,CLR,0.00,VWS V14.01,2013-04-15 13:03:00,
2013-04-15 09:08:00,38.6,31.4,30.40,SSW,211,0.0,4.5,75,0.00,,CLR,0.00,VWS V14.01,2013-04-15 13:08:00,
2013-04-15 09:13:00,38.6,31.7,30.40,SSW,211,1.5,1.5,76,0.00,,CLR,0.00,VWS V14.01,2013-04-15 13:13:00,
2013-04-15 09:18:00,38.8,31.9,30.40,SSW,210,3.0,3.0,76,0.00,,CLR,0.00,VWS V14.01,2013-04-15 13:18:00,
2013-04-15 09:23:00,38.9,32.0,30.40,SSW,211,1.5,4.5,76,0.00,,CLR,0.00,VWS V14.01,2013-04-15 13:23:00,
2013-04-15 09:28:00,39.1,32.2,30.40,SSW,211,1.5,4.5,76,0.00,,CLR,0.00,VWS V14.01,2013-04-15 13:28:00,
2013-04-15 09:33:00,39.3,32.4,30.40,SSW,211,0.0,4.5,76,0.00,,CLR,0.00,VWS V14.01,2013-04-15 13:33:00,
2013-04-15 09:39:00,39.6,32.0,30.40,SSW,211,3.0,4.5,74,0.00,,CLR,0.00,VWS V14.01,2013-04-15 13:39:00,
2013-04-15 09:44:00,40.1,32.8,30.40,SSW,211,3.0,4.5,75,0.00,,CLR,0.00,VWS V14.01,2013-04-15 13:44:00,
2013-04-15 09:49:00,40.2,32.9,30.40,SSW,210,4.5,4.5,75,0.00,,CLR,0.00,VWS V14.01,2013-04-15 13:49:00,
2013-04-15 09:54:00,40.6,33.0,30.40,South,171,4.5,6.0,74,0.00,,CLR,0.00,VWS V14.01,2013-04-15 13:54:00,
2013-04-15 09:59:00,40.8,32.5,30.40,South,171,3.0,6.0,72,0.00,,CLR,0.00,VWS V14.01,2013-04-15 13:59:00,
2013-04-15 10:04:00,41.3,33.0,30.40,South,171,3.0,6.0,72,0.00,,CLR,0.00,VWS V14.01,2013-04-15 14:04:00,
2013-04-15 10:09:00,41.9,33.2,30.40,SSE,162,1.5,6.0,71,0.00,,CLR,0.00,VWS V14.01,2013-04-15 14:09:00,
2013-04-15 10:14:00,42.3,33.6,30.40,SSE,161,3.0,6.0,71,0.00,,CLR,0.00,VWS V14.01,2013-04-15 14:14:00,
2013-04-15 10:19:00,41.9,33.2,30.41,SSE,161,3.0,6.0,71,0.00,,CLR,0.00,VWS V14.01,2013-04-15 14:19:00,
2013-04-15 10:24:00,41.2,31.1,30.41,SSE,162,0.0,6.0,67,0.00,,CLR,0.00,VWS V14.01,2013-04-15 14:24:00,
2013-04-15 10:29:00,41.3,30.8,30.41,SSE,158,0.0,4.5,66,0.00,,CLR,0.00,VWS V14.01,2013-04-15 14:29:00,
2013-04-15 10:34:00,41.8,32.4,30.40,SSE,159,0.0,4.5,69,0.00,,CLR,0.00,VWS V14.01,2013-04-15 14:34:00,
2013-04-15 10:39:00,42.2,31.7,30.40,SSE,158,0.0,3.0,66,0.00,,CLR,0.00,VWS V14.01,2013-04-15 14:39:00,
2013-04-15 10:44:00,43.1,33.6,30.40,SSE,158,0.0,3.0,69,0.00,,CLR,0.00,VWS V14.01,2013-04-15 14:44:00,
2013-04-15 10:49:00,43.3,34.5,30.40,SSE,155,4.5,6.0,71,0.00,,CLR,0.00,VWS V14.01,2013-04-15 14:49:00,
2013-04-15 10:54:00,43.8,35.0,30.40,SE,146,4.5,6.0,71,0.00,,CLR,0.00,VWS V14.01,2013-04-15 14:54:00,
2013-04-15 10:59:00,44.2,34.0,30.40,SE,139,6.0,6.0,67,0.00,,CLR,0.00,VWS V14.01,2013-04-15 14:59:00,
2013-04-15 11:04:00,44.4,33.8,30.40,SE,137,4.5,6.0,66,0.00,,CLR,0.00,VWS V14.01,2013-04-15 15:04:00,
2013-04-15 11:10:00,44.7,32.9,30.40,SE,137,7.5,7.5,63,0.00,,CLR,0.00,VWS V14.01,2013-04-15 15:10:00,
2013-04-15 11:15:00,45.2,33.8,30.40,SE,137,6.0,7.5,64,0.00,,CLR,0.00,VWS V14.01,2013-04-15 15:15:00,
2013-04-15 11:20:00,45.5,33.2,30.40,SE,136,6.0,7.5,62,0.00,,CLR,0.00,VWS V14.01,2013-04-15 15:20:00,
2013-04-15 11:25:00,45.8,33.1,30.40,SE,136,4.5,7.5,61,0.00,,CLR,0.00,VWS V14.01,2013-04-15 15:25:00,
2013-04-15 11:30:00,46.3,31.9,30.40,SE,136,4.5,7.5,57,0.00,,CLR,0.00,VWS V14.01,2013-04-15 15:30:00,
2013-04-15 11:35:00,46.6,31.8,30.40,SE,137,3.0,7.5,56,0.00,,CLR,0.00,VWS V14.01,2013-04-15 15:35:00,
2013-04-15 11:40:00,46.9,31.6,30.40,SE,137,7.5,7.5,55,0.00,,CLR,0.00,VWS V14.01,2013-04-15 15:40:00,
2013-04-15 11:45:00,47.5,30.3,30.39,SE,137,7.5,7.5,51,0.00,,CLR,0.00,VWS V14.01,2013-04-15 15:45:00,
2013-04-15 11:50:00,47.9,32.1,30.39,SE,138,6.0,9.0,54,0.00,,CLR,0.00,VWS V14.01,2013-04-15 15:50:00,
2013-04-15 11:55:00,48.2,31.9,30.39,SE,142,9.0,9.0,53,0.00,,CLR,0.00,VWS V14.01,2013-04-15 15:55:00,
2013-04-15 12:00:00,47.6,30.4,30.39,SE,137,6.0,9.0,51,0.00,,CLR,0.00,VWS V14.01,2013-04-15 16:00:00,
2013-04-15 12:05:00,47.2,32.3,30.39,SE,133,7.5,9.0,56,0.00,,OVC110,0.00,VWS V14.01,2013-04-15 16:05:00,
2013-04-15 12:10:00,47.0,32.1,30.39,SE,135,6.0,9.0,56,0.00,,OVC110,0.00,VWS V14.01,2013-04-15 16:10:00,
2013-04-15 12:15:00,47.2,31.0,30.39,SE,138,6.0,10.5,53,0.00,,OVC110,0.00,VWS V14.01,2013-04-15 16:15:00,
2013-04-15 12:20:00,47.3,31.0,30.39,SE,140,7.5,10.5,53,0.00,,OVC110,0.00,VWS V14.01,2013-04-15 16:20:00,
2013-04-15 12:21:00,49.7,29.8,30.37,SSE,149,4.5,13.5,46,0.00,,SCT100,0.00,VWS V14.01,2013-04-15 16:21:00,
2013-04-15 12:22:00,49.7,29.8,30.37,SSE,156,7.5,10.5,46,0.00,,SCT100,0.00,VWS V14.01,2013-04-15 16:22:00,
2013-04-15 12:23:00,49.7,30.3,30.37,SSE,147,9.0,10.5,47,0.00,,SCT100,0.00,VWS V14.01,2013-04-15 16:23:00,
2013-04-15 12:24:00,49.8,29.9,30.37,SE,142,6.0,10.5,46,0.00,,SCT100,0.00,VWS V14.01,2013-04-15 16:24:00,
2013-04-15 12:25:00,47.3,29.6,30.39,SE,145,7.5,10.5,50,0.00,,OVC110,0.00,VWS V14.01,2013-04-15 16:25:00,
2013-04-15 12:26:00,49.8,31.4,30.37,SE,144,7.5,10.5,49,0.00,,SCT100,0.00,VWS V14.01,2013-04-15 16:26:00,
2013-04-15 12:27:00,49.8,29.9,30.37,SE,135,6.0,10.5,46,0.00,,SCT100,0.00,VWS V14.01,2013-04-15 16:27:00,
2013-04-15 12:28:00,49.8,28.8,30.37,SE,135,0.0,10.5,44,0.00,,SCT100,0.00,VWS V14.01,2013-04-15 16:28:00,
2013-04-15 12:29:00,49.8,30.4,30.37,SE,135,4.5,10.5,47,0.00,,SCT100,0.00,VWS V14.01,2013-04-15 16:29:00,
2013-04-15 12:30:00,47.5,30.3,30.39,SE,137,4.5,10.5,51,0.00,,OVC110,0.00,VWS V14.01,2013-04-15 16:30:00,
2013-04-15 12:31:00,49.8,29.3,30.37,SSE,166,6.0,10.5,45,0.00,,SCT100,0.00,VWS V14.01,2013-04-15 16:31:00,
2013-04-15 12:32:00,49.8,29.3,30.37,SSE,157,4.5,10.5,45,0.00,,SCT100,0.00,VWS V14.01,2013-04-15 16:32:00,
2013-04-15 12:33:00,49.8,30.4,30.37,SSE,157,4.5,10.5,47,0.00,,SCT100,0.00,VWS V14.01,2013-04-15 16:33:00,
2013-04-15 12:35:00,47.9,31.1,30.39,SE,141,7.5,10.5,52,0.00,,OVC110,0.00,VWS V14.01,2013-04-15 16:35:00,
2013-04-15 12:40:00,48.5,30.7,30.39,SE,136,6.0,10.5,50,0.00,,OVC110,0.00,VWS V14.01,2013-04-15 16:40:00,
2013-04-15 12:45:00,48.5,32.2,30.38,SE,135,4.5,10.5,53,0.00,,OVC110,0.00,VWS V14.01,2013-04-15 16:45:00,
2013-04-15 12:50:00,48.6,30.8,30.38,ESE,120,6.0,10.5,50,0.00,,OVC110,0.00,VWS V14.01,2013-04-15 16:50:00,
2013-04-15 12:55:00,48.1,30.4,30.38,SE,125,4.5,10.5,50,0.00,,OVC110,0.00,VWS V14.01,2013-04-15 16:55:00,
2013-04-15 13:00:00,48.5,30.2,30.37,SSE,148,9.0,15.0,49,0.00,,OVC110,0.00,VWS V14.01,2013-04-15 17:00:00,
2013-04-15 13:05:00,48.8,30.5,30.37,SE,136,3.0,15.0,49,0.00,,SCT100,0.00,VWS V14.01,2013-04-15 17:05:00,
2013-04-15 13:10:00,49.1,31.3,30.37,SE,138,7.5,15.0,50,0.00,,SCT100,0.00,VWS V14.01,2013-04-15 17:10:00,
2013-04-15 13:15:00,49.5,31.1,30.37,SE,136,7.5,15.0,49,0.00,,SCT100,0.00,VWS V14.01,2013-04-15 17:15:00,
2013-04-15 13:28:00,49.8,29.9,30.36,SE,136,6.0,10.5,46,0.00,,CLR,0.00,VWS V14.01,2013-04-15 17:28:00,
2013-04-15 13:29:00,49.8,28.8,30.37,SE,135,3.0,10.5,44,0.00,,SCT100,0.00,VWS V14.01,2013-04-15 17:29:00,
2013-04-15 13:30:00,49.8,30.4,30.36,SE,135,6.0,10.5,47,0.00,,CLR,0.00,VWS V14.01,2013-04-15 17:30:00,
2013-04-15 13:31:00,50.0,30.0,30.36,SE,137,6.0,7.5,46,0.00,,CLR,0.00,VWS V14.01,2013-04-15 17:31:00,
2013-04-15 13:32:00,50.1,30.1,30.36,SE,137,6.0,7.5,46,0.00,,CLR,0.00,VWS V14.01,2013-04-15 17:32:00,
2013-04-15 13:33:00,50.3,30.9,30.36,SE,137,9.0,9.0,47,0.00,,CLR,0.00,VWS V14.01,2013-04-15 17:33:00,
2013-04-15 13:34:00,50.0,31.6,30.37,SSE,156,3.0,10.5,49,0.00,,SCT100,0.00,VWS V14.01,2013-04-15 17:34:00,
2013-04-15 13:35:00,50.4,33.5,30.36,SE,137,6.0,9.0,52,0.00,,CLR,0.00,VWS V14.01,2013-04-15 17:35:00,
2013-04-15 13:36:00,50.6,32.7,30.36,SE,137,6.0,9.0,50,0.00,,CLR,0.00,VWS V14.01,2013-04-15 17:36:00,
2013-04-15 13:37:00,50.6,32.7,30.36,SE,137,1.5,9.0,50,0.00,,CLR,0.00,VWS V14.01,2013-04-15 17:37:00,
2013-04-15 13:38:00,50.6,30.1,30.36,SE,137,3.0,9.0,45,0.00,,CLR,0.00,VWS V14.01,2013-04-15 17:38:00,
2013-04-15 13:39:00,50.0,31.1,30.37,SE,136,7.5,10.5,48,0.00,,SCT100,0.00,VWS V14.01,2013-04-15 17:39:00,
2013-04-15 13:40:00,50.4,31.0,30.36,SE,140,7.5,9.0,47,0.00,,CLR,0.00,VWS V14.01,2013-04-15 17:40:00,
2013-04-15 13:44:00,49.4,29.0,30.37,SE,135,4.5,10.5,45,0.00,,SCT100,0.00,VWS V14.01,2013-04-15 17:44:00,
2013-04-15 13:49:00,49.5,30.6,30.37,SSE,147,4.5,7.5,48,0.00,,SCT100,0.00,VWS V14.01,2013-04-15 17:49:00,
2013-04-15 13:54:00,49.8,31.4,30.37,South,171,1.5,16.5,49,0.00,,SCT100,0.00,VWS V14.01,2013-04-15 17:54:00,
2013-04-15 13:59:00,50.4,29.9,30.37,SE,133,3.0,16.5,45,0.00,,SCT100,0.00,VWS V14.01,2013-04-15 17:59:00,
2013-04-15 14:04:00,50.6,29.5,30.37,SSE,156,7.5,16.5,44,0.00,,CLR,0.00,VWS V14.01,2013-04-15 18:04:00,
2013-04-15 14:09:00,50.7,28.5,30.37,SE,145,6.0,16.5,42,0.00,,CLR,0.00,VWS V14.01,2013-04-15 18:09:00,
2013-04-15 14:14:00,50.7,28.5,30.36,SE,142,0.0,16.5,42,0.00,,CLR,0.00,VWS V14.01,2013-04-15 18:14:00,
2013-04-15 14:19:00,50.3,29.8,30.36,SE,141,3.0,10.5,45,0.00,,CLR,0.00,VWS V14.01,2013-04-15 18:19:00,
2013-04-15 14:24:00,49.8,27.6,30.36,SE,141,4.5,10.5,42,0.00,,CLR,0.00,VWS V14.01,2013-04-15 18:24:00,
2013-04-15 14:35:00,50.6,33.6,30.36,SE,137,6.0,9.0,52,0.00,,CLR,0.00,VWS V14.01,2013-04-15 18:35:00,
2013-04-15 14:40:00,50.4,31.0,30.36,SSE,164,10.5,10.5,47,0.00,,CLR,0.00,VWS V14.01,2013-04-15 18:40:00,
2013-04-15 14:45:00,50.9,29.2,30.36,SE,146,6.0,10.5,43,0.00,,CLR,0.00,VWS V14.01,2013-04-15 18:45:00,
2013-04-15 14:51:00,51.2,28.3,30.36,SE,143,4.5,10.5,41,0.00,,CLR,0.00,VWS V14.01,2013-04-15 18:51:00,
2013-04-15 14:56:00,51.8,28.9,30.36,SE,135,4.5,10.5,41,0.00,,CLR,0.00,VWS V14.01,2013-04-15 18:56:00,
2013-04-15 14:57:00,52.6,29.0,30.34,SE,135,6.0,10.5,40,0.00,,CLR,0.00,VWS V14.01,2013-04-15 18:57:00,
2013-04-15 14:58:00,52.6,29.0,30.34,SE,136,4.5,10.5,40,0.00,,CLR,0.00,VWS V14.01,2013-04-15 18:58:00,
2013-04-15 14:59:00,52.6,26.4,30.32,SE,135,4.5,10.5,36,0.00,,CLR,0.00,VWS V14.01,2013-04-15 18:59:00,
2013-04-15 15:00:00,52.5,26.3,30.32,SE,136,4.5,10.5,36,0.00,,CLR,0.00,VWS V14.01,2013-04-15 19:00:00,
2013-04-15 15:01:00,51.9,29.0,30.35,SE,131,10.5,10.5,41,0.00,,CLR,0.00,VWS V14.01,2013-04-15 19:01:00,
2013-04-15 15:02:00,52.5,27.6,30.32,SE,136,4.5,10.5,38,0.00,,CLR,0.00,VWS V14.01,2013-04-15 19:02:00,
2013-04-15 15:03:00,52.3,26.8,30.32,SE,136,4.5,10.5,37,0.00,,CLR,0.00,VWS V14.01,2013-04-15 19:03:00,
2013-04-15 15:04:00,52.3,27.5,30.32,SE,136,4.5,10.5,38,0.00,,CLR,0.00,VWS V14.01,2013-04-15 19:04:00,
2013-04-15 15:05:00,52.3,28.1,30.32,SE,136,4.5,10.5,39,0.00,,CLR,0.00,VWS V14.01,2013-04-15 19:05:00,
2013-04-15 15:06:00,51.6,28.7,30.35,SE,129,6.0,10.5,41,0.00,,CLR,0.00,VWS V14.01,2013-04-15 19:06:00,
2013-04-15 15:07:00,52.5,29.5,30.32,SE,136,6.0,10.5,41,0.00,,CLR,0.00,VWS V14.01,2013-04-15 19:07:00,
2013-04-15 15:08:00,52.5,29.5,30.32,SE,136,6.0,10.5,41,0.00,,CLR,0.00,VWS V14.01,2013-04-15 19:08:00,
2013-04-15 15:09:00,52.6,29.6,30.32,SE,136,7.5,10.5,41,0.00,,CLR,0.00,VWS V14.01,2013-04-15 19:09:00,
2013-04-15 15:10:00,52.6,30.2,30.32,SE,135,9.0,10.5,42,0.00,,CLR,0.00,VWS V14.01,2013-04-15 19:10:00,
2013-04-15 15:11:00,51.5,28.0,30.35,SE,139,6.0,10.5,40,0.00,,CLR,0.00,VWS V14.01,2013-04-15 19:11:00,
2013-04-15 15:12:00,52.9,29.9,30.32,SE,136,9.0,10.5,41,0.00,,CLR,0.00,VWS V14.01,2013-04-15 19:12:00,
2013-04-15 15:14:00,52.9,29.9,30.32,SE,137,10.5,10.5,41,0.00,,CLR,0.00,VWS V14.01,2013-04-15 19:14:00,
2013-04-15 15:16:00,51.3,29.6,30.35,SE,130,7.5,10.5,43,0.00,,CLR,0.00,VWS V14.01,2013-04-15 19:16:00,
2013-04-15 15:21:00,50.9,26.8,30.35,SE,132,6.0,10.5,39,0.00,,CLR,0.00,VWS V14.01,2013-04-15 19:21:00,
2013-04-15 15:26:00,51.0,29.3,30.35,SE,137,9.0,12.0,43,0.00,,CLR,0.00,VWS V14.01,2013-04-15 19:26:00,
2013-04-15 15:31:00,50.9,27.5,30.34,ESE,106,4.5,12.0,40,0.00,,CLR,0.00,VWS V14.01,2013-04-15 19:31:00,
2013-04-15 15:36:00,51.0,28.7,30.34,SE,134,10.5,12.0,42,0.00,,CLR,0.00,VWS V14.01,2013-04-15 19:36:00,
2013-04-15 15:41:00,51.5,28.0,30.34,SE,129,7.5,12.0,40,0.00,,CLR,0.00,VWS V14.01,2013-04-15 19:41:00,
2013-04-15 15:47:00,51.6,28.7,30.34,SE,129,4.5,10.5,41,0.00,,CLR,0.00,VWS V14.01,2013-04-15 19:47:00,
2013-04-15 15:52:00,52.2,29.2,30.34,SE,136,9.0,10.5,41,0.00,,CLR,0.00,VWS V14.01,2013-04-15 19:52:00,
2013-04-15 15:57:00,52.6,29.0,30.34,SE,135,7.5,10.5,40,0.00,,CLR,0.00,VWS V14.01,2013-04-15 19:57:00,
2013-04-15 16:02:00,52.5,27.0,30.32,SE,136,4.5,10.5,37,0.00,,CLR,0.00,VWS V14.01,2013-04-15 20:02:00,
2013-04-15 16:10:00,52.6,30.2,30.32,SE,135,9.0,10.5,42,0.00,,CLR,0.00,VWS V14.01,2013-04-15 20:10:00,
2013-04-15 16:15:00,52.9,29.9,30.32,SE,136,10.5,10.5,41,0.00,,CLR,0.00,VWS V14.01,2013-04-15 20:15:00,
2013-04-15 16:20:00,52.9,31.0,30.32,SE,136,9.0,10.5,43,0.00,,CLR,0.00,VWS V14.01,2013-04-15 20:20:00,
2013-04-15 16:25:00,52.9,29.2,30.32,SE,137,10.5,10.5,40,0.00,,CLR,0.00,VWS V14.01,2013-04-15 20:25:00,
2013-04-15 16:30:00,52.9,28.6,30.32,SE,135,9.0,10.5,39,0.00,,CLR,0.00,VWS V14.01,2013-04-15 20:30:00,
2013-04-15 16:35:00,52.9,28.0,30.32,SE,135,6.0,10.5,38,0.00,,CLR,0.00,VWS V14.01,2013-04-15 20:35:00,
2013-04-15 16:40:00,52.9,28.0,30.32,SE,135,9.0,10.5,38,0.00,,CLR,0.00,VWS V14.01,2013-04-15 20:40:00,
2013-04-15 16:45:00,53.1,28.2,30.32,SE,137,6.0,10.5,38,0.00,,CLR,0.00,VWS V14.01,2013-04-15 20:45:00,
2013-04-15 16:50:00,52.8,28.5,30.32,SE,139,9.0,10.5,39,0.00,,CLR,0.00,VWS V14.01,2013-04-15 20:50:00,
2013-04-15 16:55:00,52.5,29.5,30.32,SE,139,7.5,10.5,41,0.00,,CLR,0.00,VWS V14.01,2013-04-15 20:55:00,
2013-04-15 17:00:00,51.3,32.3,30.32,SSE,152,13.5,13.5,48,0.00,,CLR,0.00,VWS V14.01,2013-04-15 21:00:00,
2013-04-15 17:05:00,49.2,31.4,30.32,SE,143,10.5,13.5,50,0.00,,CLR,0.00,VWS V14.01,2013-04-15 21:05:00,
2013-04-15 17:10:00,48.2,31.9,30.32,SE,143,10.5,13.5,53,0.00,,CLR,0.00,VWS V14.01,2013-04-15 21:10:00,
2013-04-15 17:15:00,47.9,30.2,30.33,SE,143,7.5,13.5,50,0.00,,CLR,0.00,VWS V14.01,2013-04-15 21:15:00,
2013-04-15 17:20:00,48.4,28.0,30.33,SE,143,6.0,13.5,45,0.00,,CLR,0.00,VWS V14.01,2013-04-15 21:20:00,
2013-04-15 17:25:00,48.9,27.4,30.33,SE,144,7.5,13.5,43,0.00,,CLR,0.00,VWS V14.01,2013-04-15 21:25:00,
2013-04-15 17:30:00,49.5,27.4,30.33,SE,141,6.0,10.5,42,0.00,,CLR,0.00,VWS V14.01,2013-04-15 21:30:00,
2013-04-15 17:35:00,50.0,27.2,30.33,SE,141,6.0,9.0,41,0.00,,CLR,0.00,VWS V14.01,2013-04-15 21:35:00,
2013-04-15 17:40:00,50.0,27.8,30.33,SE,139,6.0,9.0,42,0.00,,CLR,0.00,VWS V14.01,2013-04-15 21:40:00,
2013-04-15 17:45:00,50.0,31.1,30.33,SE,145,21.0,22.5,48,0.00,,CLR,0.00,VWS V14.01,2013-04-15 21:45:00,
2013-04-15 17:50:00,48.9,32.5,30.33,SE,137,12.0,22.5,53,0.00,,CLR,0.00,VWS V14.01,2013-04-15 21:50:00,
2013-04-15 17:55:00,48.2,34.1,30.33,SE,136,13.5,22.5,58,0.00,,CLR,0.00,VWS V14.01,2013-04-15 21:55:00,
2013-04-15 18:00:00,47.0,34.3,30.33,SE,133,13.5,22.5,61,0.00,,CLR,0.00,VWS V14.01,2013-04-15 22:00:00,
2013-04-15 18:05:00,46.0,34.1,30.33,SE,141,13.5,22.5,63,0.00,,CLR,0.00,VWS V14.01,2013-04-15 22:05:00,
2013-04-15 18:10:00,45.0,34.7,30.33,SE,143,15.0,18.0,67,0.00,,CLR,0.00,VWS V14.01,2013-04-15 22:10:00,
2013-04-15 18:15:00,44.2,34.3,30.34,SE,145,15.0,19.5,68,0.00,,CLR,0.00,VWS V14.01,2013-04-15 22:15:00,
2013-04-15 18:20:00,44.2,34.0,30.34,SE,132,21.0,21.0,67,0.00,,CLR,0.00,VWS V14.01,2013-04-15 22:20:00,
2013-04-15 18:25:00,45.0,34.0,30.34,SE,131,22.5,22.5,65,0.00,,CLR,0.00,VWS V14.01,2013-04-15 22:25:00,
2013-04-15 18:30:00,45.7,34.6,30.34,SE,131,18.0,22.5,65,0.00,,CLR,0.00,VWS V14.01,2013-04-15 22:30:00,
2013-04-15 18:35:00,46.4,33.7,30.34,SE,129,21.0,25.5,61,0.00,,CLR,0.00,VWS V14.01,2013-04-15 22:35:00,
2013-04-15 18:40:00,47.0,33.4,30.34,SE,126,15.0,25.5,59,0.00,,CLR,0.00,VWS V14.01,2013-04-15 22:40:00,
2013-04-15 18:45:00,47.8,33.3,30.34,SE,133,16.5,25.5,57,0.00,,CLR,0.00,VWS V14.01,2013-04-15 22:45:00,
2013-04-15 18:50:00,48.1,33.6,30.34,SE,131,21.0,25.5,57,0.00,,CLR,0.00,VWS V14.01,2013-04-15 22:50:00,
2013-04-15 18:55:00,47.9,33.4,30.34,SE,131,16.5,25.5,57,0.00,,CLR,0.00,VWS V14.01,2013-04-15 22:55:00,
2013-04-15 19:01:00,47.6,33.6,30.35,SE,125,16.5,22.5,58,0.00,,CLR,0.00,VWS V14.01,2013-04-15 23:01:00,
2013-04-15 19:06:00,47.3,34.1,30.35,SE,134,21.0,22.5,60,0.00,,CLR,0.00,VWS V14.01,2013-04-15 23:06:00,
2013-04-15 19:11:00,47.0,34.3,30.35,SE,131,18.0,22.5,61,0.00,,CLR,0.00,VWS V14.01,2013-04-15 23:11:00,
2013-04-15 19:16:00,46.7,34.0,30.36,SE,126,18.0,22.5,61,0.00,,CLR,0.00,VWS V14.01,2013-04-15 23:16:00,
2013-04-15 19:21:00,46.6,33.9,30.36,ESE,121,18.0,22.5,61,0.00,,CLR,0.00,VWS V14.01,2013-04-15 23:21:00,
2013-04-15 19:26:00,46.4,33.7,30.36,SE,126,15.0,21.0,61,0.00,,CLR,0.00,VWS V14.01,2013-04-15 23:26:00,
2013-04-15 19:31:00,46.3,33.2,30.37,SE,128,15.0,22.5,60,0.00,,CLR,0.00,VWS V14.01,2013-04-15 23:31:00,
2013-04-15 19:36:00,46.3,33.6,30.37,ESE,116,15.0,22.5,61,0.00,,CLR,0.00,VWS V14.01,2013-04-15 23:36:00,
2013-04-15 19:41:00,46.1,33.0,30.37,ESE,120,10.5,22.5,60,0.00,,CLR,0.00,VWS V14.01,2013-04-15 23:41:00,
2013-04-15 19:46:00,46.0,33.3,30.37,ESE,117,13.5,22.5,61,0.00,,CLR,0.00,VWS V14.01,2013-04-15 23:46:00,
2013-04-15 19:51:00,45.8,32.7,30.37,SE,129,13.5,21.0,60,0.00,,CLR,0.00,VWS V14.01,2013-04-15 23:51:00,
2013-04-15 19:56:00,45.7,33.0,30.37,ESE,120,15.0,19.5,61,0.00,,CLR,0.00,VWS V14.01,2013-04-15 23:56:00,
2013-04-15 20:01:00,45.5,32.8,30.37,ESE,122,12.0,19.5,61,0.00,,CLR,0.00,VWS V14.01,2013-04-16 00:01:00,
2013-04-15 20:06:00,45.4,33.2,30.37,SE,124,21.0,21.0,62,0.00,,CLR,0.00,VWS V14.01,2013-04-16 00:06:00,
2013-04-15 20:11:00,45.1,32.9,30.37,SSE,153,9.0,21.0,62,0.00,,CLR,0.00,VWS V14.01,2013-04-16 00:11:00,
2013-04-15 20:16:00,45.0,32.8,30.38,SE,131,16.5,21.0,62,0.00,,CLR,0.00,VWS V14.01,2013-04-16 00:16:00,
2013-04-15 20:21:00,44.7,32.5,30.38,SE,124,16.5,21.0,62,0.00,,CLR,0.00,VWS V14.01,2013-04-16 00:21:00,
2013-04-15 20:26:00,44.4,32.2,30.38,SE,132,19.5,21.0,62,0.00,,CLR,0.00,VWS V14.01,2013-04-16 00:26:00,
2013-04-15 20:31:00,44.2,32.0,30.39,SE,139,21.0,21.0,62,0.00,,CLR,0.00,VWS V14.01,2013-04-16 00:31:00,
2013-04-15 20:37:00,44.1,32.3,30.39,ESE,116,18.0,21.0,63,0.00,,CLR,0.00,VWS V14.01,2013-04-16 00:37:00,
2013-04-15 20:42:00,43.9,32.5,30.39,SE,129,10.5,21.0,64,0.00,,CLR,0.00,VWS V14.01,2013-04-16 00:42:00,
2013-04-15 20:47:00,43.6,32.2,30.39,SE,133,18.0,21.0,64,0.00,,CLR,0.00,VWS V14.01,2013-04-16 00:47:00,
2013-04-15 20:52:00,43.5,32.2,30.39,SE,125,10.5,21.0,64,0.00,,CLR,0.00,VWS V14.01,2013-04-16 00:52:00,
2013-04-15 20:57:00,43.3,32.3,30.39,SE,132,15.0,18.0,65,0.00,,CLR,0.00,VWS V14.01,2013-04-16 00:57:00,
2013-04-15 21:02:00,43.2,31.9,30.40,SE,126,9.0,18.0,64,0.00,,CLR,0.00,VWS V14.01,2013-04-16 01:02:00,
2013-04-15 21:07:00,43.1,32.2,30.40,ESE,118,7.5,18.0,65,0.00,,CLR,0.00,VWS V14.01,2013-04-16 01:07:00,
2013-04-15 21:12:00,42.9,32.0,30.40,SE,125,10.5,16.5,65,0.00,,CLR,0.00,VWS V14.01,2013-04-16 01:12:00,
2013-04-15 21:17:00,42.9,32.0,30.40,SE,125,10.5,16.5,65,0.00,,CLR,0.00,VWS V14.01,2013-04-16 01:17:00,
2013-04-15 21:22:00,42.8,32.2,30.40,SE,127,13.5,16.5,66,0.00,,CLR,0.00,VWS V14.01,2013-04-16 01:22:00,
2013-04-15 21:27:00,42.6,31.7,30.40,SE,129,6.0,16.5,65,0.00,,CLR,0.00,VWS V14.01,2013-04-16 01:27:00,
2013-04-15 21:32:00,42.5,31.6,30.40,ESE,123,7.5,16.5,65,0.00,,CLR,0.00,VWS V14.01,2013-04-16 01:32:00,
2013-04-15 21:37:00,42.3,31.4,30.40,SE,125,6.0,16.5,65,0.00,,CLR,0.00,VWS V14.01,2013-04-16 01:37:00,
2013-04-15 21:42:00,42.3,31.4,30.40,SE,132,0.0,15.0,65,0.00,,CLR,0.00,VWS V14.01,2013-04-16 01:42:00,
2013-04-15 21:47:00,42.2,32.0,30.40,SE,128,6.0,10.5,67,0.00,,CLR,0.00,VWS V14.01,2013-04-16 01:47:00,
2013-04-15 21:52:00,42.1,31.6,30.40,ESE,112,6.0,9.0,66,0.00,,CLR,0.00,VWS V14.01,2013-04-16 01:52:00,
2013-04-15 21:57:00,42.1,31.6,30.40,SE,131,4.5,9.0,66,0.00,,CLR,0.00,VWS V14.01,2013-04-16 01:57:00,
2013-04-15 22:02:00,41.9,31.8,30.39,SE,128,0.0,9.0,67,0.00,,CLR,0.00,VWS V14.01,2013-04-16 02:02:00,
2013-04-15 22:07:00,41.8,31.7,30.39,ESE,116,4.5,9.0,67,0.00,,CLR,0.00,VWS V14.01,2013-04-16 02:07:00,
2013-04-15 22:12:00,41.8,31.3,30.39,ESE,105,1.5,9.0,66,0.00,,CLR,0.00,VWS V14.01,2013-04-16 02:12:00,
2013-04-15 22:17:00,41.8,31.3,30.40,ESE,105,0.0,9.0,66,0.00,,CLR,0.00,VWS V14.01,2013-04-16 02:17:00,
2013-04-15 22:22:00,41.6,31.5,30.40,ESE,106,0.0,9.0,67,0.00,,CLR,0.00,VWS V14.01,2013-04-16 02:22:00,
2013-04-15 22:27:00,41.3,31.9,30.40,ESE,105,0.0,7.5,69,0.00,,CLR,0.00,VWS V14.01,2013-04-16 02:27:00,
2013-04-15 22:32:00,41.2,31.5,30.41,ESE,104,0.0,4.5,68,0.00,,CLR,0.00,VWS V14.01,2013-04-16 02:32:00,
2013-04-15 22:37:00,40.8,31.4,30.41,ESE,104,0.0,4.5,69,0.00,,CLR,0.00,VWS V14.01,2013-04-16 02:37:00,
2013-04-15 22:42:00,40.5,31.1,30.41,ESE,105,0.0,1.5,69,0.00,,CLR,0.00,VWS V14.01,2013-04-16 02:42:00,
2013-04-15 22:47:00,40.2,31.6,30.41,ESE,105,1.5,1.5,71,0.00,,CLR,0.00,VWS V14.01,2013-04-16 02:47:00,
2013-04-15 22:52:00,39.9,30.9,30.41,ESE,105,0.0,1.5,70,0.00,,CLR,0.00,VWS V14.01,2013-04-16 02:52:00,
2013-04-15 22:57:00,39.9,31.3,30.41,ESE,106,0.0,1.5,71,0.00,,CLR,0.00,VWS V14.01,2013-04-16 02:57:00,
2013-04-15 22:59:00,38.1,32.2,30.42,ESE,105,0.0,1.5,79,0.00,,CLR,0.00,VWS V14.01,2013-04-16 02:59:00,
2013-04-15 23:00:00,38.1,32.2,30.42,ESE,105,0.0,1.5,79,0.00,,CLR,0.00,VWS V14.01,2013-04-16 03:00:00,
2013-04-15 23:01:00,38.1,32.2,30.42,ESE,105,0.0,1.5,79,0.00,,CLR,0.00,VWS V14.01,2013-04-16 03:01:00,
2013-04-15 23:02:00,39.8,31.2,30.41,ESE,106,0.0,1.5,71,0.00,,CLR,0.00,VWS V14.01,2013-04-16 03:02:00,
2013-04-15 23:03:00,37.9,32.0,30.42,ESE,106,0.0,0.0,79,0.00,,CLR,0.00,VWS V14.01,2013-04-16 03:03:00,
2013-04-15 23:04:00,37.9,32.0,30.42,ESE,105,0.0,0.0,79,0.00,,CLR,0.00,VWS V14.01,2013-04-16 03:04:00,
2013-04-15 23:05:00,37.9,32.0,30.42,ESE,106,0.0,0.0,79,0.00,,CLR,0.00,VWS V14.01,2013-04-16 03:05:00,
2013-04-15 23:06:00,37.9,32.0,30.42,ESE,105,0.0,0.0,79,0.00,,CLR,0.00,VWS V14.01,2013-04-16 03:06:00,
2013-04-15 23:07:00,39.6,31.0,30.41,ESE,104,0.0,1.5,71,0.00,,CLR,0.00,VWS V14.01,2013-04-16 03:07:00,
2013-04-15 23:08:00,37.9,32.0,30.42,ESE,104,0.0,0.0,79,0.00,,CLR,0.00,VWS V14.01,2013-04-16 03:08:00,
2013-04-15 23:09:00,37.9,32.0,30.42,ESE,105,0.0,0.0,79,0.00,,CLR,0.00,VWS V14.01,2013-04-16 03:09:00,
2013-04-15 23:12:00,39.5,31.2,30.41,ESE,105,0.0,1.5,72,0.00,,CLR,0.00,VWS V14.01,2013-04-16 03:12:00,
2013-04-15 23:17:00,39.3,31.4,30.41,ESE,105,0.0,1.5,73,0.00,,CLR,0.00,VWS V14.01,2013-04-16 03:17:00,
2013-04-15 23:22:00,39.3,31.7,30.41,ESE,106,0.0,1.5,74,0.00,,CLR,0.00,VWS V14.01,2013-04-16 03:22:00,
2013-04-15 23:27:00,39.1,31.2,30.41,ESE,105,0.0,3.0,73,0.00,,CLR,0.00,VWS V14.01,2013-04-16 03:27:00,
2013-04-15 23:32:00,39.1,32.2,30.40,ESE,105,0.0,3.0,76,0.00,,CLR,0.00,VWS V14.01,2013-04-16 03:32:00,
2013-04-15 23:38:00,38.8,32.5,30.40,ESE,105,0.0,3.0,78,0.00,,CLR,0.00,VWS V14.01,2013-04-16 03:38:00,
2013-04-15 23:43:00,38.5,31.9,30.40,ESE,105,0.0,3.0,77,0.00,,CLR,0.00,VWS V14.01,2013-04-16 03:43:00,
2013-04-15 23:48:00,38.3,32.4,30.42,ESE,105,0.0,1.5,79,0.00,,CLR,0.00,VWS V14.01,2013-04-16 03:48:00,
2013-04-15 23:53:00,38.2,32.3,30.42,ESE,106,0.0,1.5,79,0.00,,CLR,0.00,VWS V14.01,2013-04-16 03:53:00,
2013-04-15 23:58:00,38.1,32.2,30.42,ESE,106,0.0,1.5,79,0.00,,CLR,0.00,VWS V14.01,2013-04-16 03:58:00,